Orbital Elements at Epoch 2459000.5 (2020-May-31.0) TDB
Reference: JPL 21 (heliocentric ecliptic J2000)
Element | Value | Uncertainty (1-sigma) | Units |
e | .1305989345106715 | 3.4011e-08 | |
a | 2.588823244899745 | 9.2394e-09 | au |
q | 2.250725687479379 | 8.9576e-08 | au |
i | 3.007591671938936 | 3.2677e-06 | deg |
node | 129.576116104499 | 7.3947e-05 | deg |
peri | 300.3159627885016 | 7.51e-05 | deg |
M | 301.4036699558655 | 1.2746e-05 | deg |
tp | 2459248.139513295762 (2021-Feb-02.63951330) | 5.3805e-05 | TDB |
period | 1521.430176929628 4.17 | 8.1449e-06 2.23e-08 | d yr |
n | .2366194686150565 | 1.2667e-09 | deg/d |
Q | 2.92692080232011 | 1.0446e-08 | au |
|
| | Orbit Determination Parameters
Additional Information
|